Location: Newark
(39.6867°N, 100.6772°W)
Time: 18:01:10
(UTC+00:00)

Vanguard 1 Rocket - Pass Details

Date: 29 October 2019
Orbit: 651 x 4225 km, 34.3° (Epoch: 14 November)

Event Time Altitude Azimuth Distance (km) Brightness Sun altitude
Rises 16:30:46 0° 257° (WSW) 4,557 10.8 30.4°
Reaches altitude 10° 16:33:11 10° 255° (WSW) 3,889 10.5 30.6°
Maximum altitude 16:44:06 71° 174° (S) 2,651 10.7 31.7°
Drops below altitude 10° 17:05:30 10° 96° (E) 7,025 12.4 33.6°
Sets 17:11:44 0° 95° (E) 8,319 12.6 34.0°
